Theta_e
341 340 338 338 339 340 343 344 346 348 350 350 351 351 351 352 352 352 352 352 350 349
343 341 339 339 340 340 343 345 347 349 349 349 350 351 351 349 350 352 352 352 352 351
343 344 343 341 339 341 344 347 348 348 350 351 351 352 350 348 350 349 350 351 350 351
343 344 343 343 343 344 346 347 347 349 350 350 351 352 350 349 350 349 350 350 349 348
345 344 343 344 345 348 347 347 346 345 344 346 347 348 348 347 351 349 350 350 348 349
344 345 344 344 345 347 347 347 346 345 343 342 343 345 348 348 347 349 350 350 348 348
343 344 345 346 346 346 347 347 345 344 343 343 343 343 344 347 348 349 350 351 350 349
341 341 341 343 344 346 347 347 347 345 343 343 342 341 341 346 349 348 348 350 350 351
338 340 340 341 341 343 344 346 345 343 342 340 340 336 336 343 348 350 350 350 351 352
339 338 338 340 339 338 338 338 341 344 344 343 342 332 332 338 348 348 348 349 350 350
337 337 339 340 340 339 339 338 337 337 339 342 344 331 331 334 344 347 349 350 351 351
337 337 337 337 337 338 337 338 338 339 339 339 341 329 328 332 341 343 345 348 350 350
338 337 336 335 334 335 336 336 338 340 342 338 345 331 325 329 342 342 344 347 347 334
340 338 337 336 334 335 336 338 340 340 340 345 344 344 324 320 341 344 345 346 346 347
Wind_Speed
6 4 4 5 4 4 3 4 4 5 5 6 5 4 3 2 3 3 3 3 2 2
6 6 6 7 5 4 4 4 5 6 5 5 5 5 5 4 3 2 2 2 3 2
8 7 6 5 6 5 4 5 5 6 5 6 6 5 5 3 3 3 2 2 4 3
8 8 6 6 6 6 4 5 5 5 5 6 5 5 4 4 4 4 3 2 4 5
7 6 6 7 7 6 6 5 6 4 4 4 5 5 6 6 6 6 6 5 4 6
7 8 9 9 8 7 7 6 5 5 6 6 6 5 6 6 6 6 7 6 5 6
6 5 6 6 5 6 7 7 7 7 7 6 5 6 6 7 7 7 7 7 6 6
4 5 4 5 5 6 6 8 8 8 7 6 6 7 7 7 8 7 8 7 7 7
5 3 4 4 2 3 3 4 6 7 8 8 7 8 12 9 8 8 7 7 7 8
4 5 5 4 5 3 2 2 4 5 5 7 8 11 11 13 8 8 9 9 8 8
4 4 4 5 4 4 4 6 5 7 7 7 8 12 14 14 9 9 9 10 10 10
4 4 4 5 5 6 5 7 8 7 8 8 9 13 13 10 7 9 11 10 10 10
3 4 4 5 5 4 4 6 5 8 9 9 9 10 12 10 6 8 8 9 11 15
3 4 4 4 3 3 5 6 8 9 7 7 7 7 7 6 6 6 6 7 7 7
Wind_Direction
191 185 195 197 201 223 209 224 198 200 200 198 208 214 226 239 263 266 252 276 205 209
187 194 196 204 194 210 235 246 224 201 203 215 205 204 199 212 221 225 246 280 266 247
195 200 194 182 215 209 236 237 234 212 211 215 216 213 197 216 230 236 239 222 242 252
196 202 192 198 206 202 212 225 229 222 215 225 223 212 204 214 218 230 238 223 228 243
184 183 196 207 216 210 200 212 228 226 227 238 234 200 214 214 212 214 230 233 222 243
197 187 206 209 212 206 207 214 223 218 227 223 232 225 217 216 221 227 225 232 235 248
208 208 198 204 202 211 213 215 210 212 226 229 224 229 226 224 223 227 234 235 223 238
166 194 219 221 203 204 219 231 218 212 219 230 223 232 220 219 224 223 226 233 240 239
165 195 230 220 234 251 220 240 234 217 212 219 232 232 227 214 217 223 225 232 237 242
188 190 197 198 206 215 247 233 253 237 229 234 232 223 232 231 232 224 227 229 233 240
215 233 218 212 218 211 211 222 217 234 225 221 236 230 222 228 230 237 233 229 228 231
204 224 219 227 227 229 218 225 233 233 236 235 242 223 228 220 216 230 238 235 231 229
195 231 230 230 242 229 225 240 232 241 233 234 251 243 223 206 225 231 232 233 232 220
215 231 255 275 225 239 232 244 251 245 238 230 232 253 243 200 209 227 243 238 235 229